Location: Austin
(30.3000°N, 97.7500°W)
Time: 02:54:29
(UTC-05:00)

Daily predictions for brighter satellites

Satellite Brightness Start Highest point End
(mag) Time Altitude Azimuth Time Altitude Azimuth Time Altitude Azimuth
ATLAS 3B R/B 4.5 00:10:01 10° NW 00:12:35 23° WNW 00:12:35 23° WNW
CENTAUR R/B 4.4 01:00:22 10° NNW 01:04:37 33° N 01:04:37 33° N
CZ-3 Stage 3 4.5 02:55:58 69° W 02:58:48 88° N 04:38:57 10° ESE
SL-16 R/B 3.5 03:47:01 42° N 03:47:01 42° N 03:51:03 10° N
COSMOS 2406 4.5 04:18:16 32° NNW 04:18:16 32° NNW 04:21:38 10° N
Cosmos 1538 Rocket 4.3 04:36:22 62° N 04:36:22 62° N 04:40:52 10° NNE
Resurs 1-4 Rocket 3.8 04:33:18 10° NNW 04:35:33 21° NNW 04:35:33 21° NNW
USA 229 DEB 3.7 04:36:34 10° NNW 04:43:49 84° WSW 04:51:10 10° SSE
USA 229 3.7 04:36:40 10° NNW 04:43:56 85° WSW 04:51:16 10° SSE
Cosmos 1455 4.4 04:45:50 19° ESE 04:46:50 22° E 04:49:46 10° NE
Cosmos 1802 Rocket 4.1 04:45:58 44° SSE 04:48:01 73° E 04:54:15 10° N
Cosmos 2100 Rocket 3.9 04:47:52 62° SSW 04:49:01 84° W 04:55:26 10° N
Cosmos 1151 Rocket 3.5 04:51:42 54° ESE 04:51:51 55° E 04:56:02 10° NNE
CZ-2D R/B 3.9 04:47:54 10° NNW 04:50:04 18° NW 04:50:04 18° NW
OAO 2 Rocket 3.4 04:56:23 59° SE 04:56:23 59° SE 05:01:05 10° ENE
Cosmos 1447 Rocket 4.5 04:50:59 10° NNW 04:57:02 58° W 04:57:16 57° WSW
BREEZE-M DEB (TANK) 3.6 04:58:47 30° E 04:58:47 30° E 05:01:15 10° ESE
ARIANE 5 R/B 4.3 04:55:17 10° NNW 04:57:33 19° NW 04:57:33 19° NW
Okean O Rocket 2.9 04:56:50 10° NNE 05:00:55 37° E 05:03:09 22° SSE
Cosmos 1680 Rocket 4.0 05:00:53 34° SSE 05:03:00 57° ESE 05:08:12 10° NNE
Cosmos 2082 Rocket 2.4 05:02:58 38° S 05:05:04 67° ESE 05:10:38 10° NNE
Cosmos 2173 Rocket 4.1 05:12:12 44° SW 05:13:48 55° W 05:20:02 10° N
CZ-3A R/B 3.5 05:08:43 10° NW 05:14:18 40° SW 05:20:24 10° SSE
USA 234 4.0 05:10:40 10° NE 05:16:52 45° SE 05:21:26 18° S
NOSS 3-1 (C) 4.2 05:10:18 10° NNW 05:18:15 82° ENE 05:26:49 10° SSE
PSLV R/B 3.8 05:15:56 10° N 05:20:05 84° WNW 05:20:59 54° SSW
Meteor 2-3 Rocket 4.0 05:17:52 10° N 05:23:30 67° E 05:29:10 10° SSE
Delta 128 4.5 05:21:54 37° WSW 05:24:34 74° S 05:31:52 10° E
ADEOS II 2.1 05:21:30 10° N 05:26:42 64° WNW 05:29:00 33° SW
CZ-4B R/B 3.4 05:23:36 10° NNE 05:29:00 67° ESE 05:34:18 10° S
Cosmos 1470 Rocket 3.5 05:25:38 10° NNW 05:29:52 58° W 05:31:22 36° SSW
Cosmos 2228 Rocket 4.2 05:31:38 28° WNW 05:31:38 28° WNW 05:35:03 10° NNW
COSMOS 2487 2.6 05:31:13 53° WNW 05:31:14 53° WNW 05:34:42 10° N
Cosmos 1515 Rocket 4.3 05:32:43 33° WNW 05:32:43 33° WNW 05:36:36 10° NNW
Cosmos 1892 2.6 05:30:27 10° N 05:34:17 90° NNW 05:38:08 10° S
CZ-4B R/B 3.2 05:33:26 10° N 05:37:53 59° WNW 05:40:06 28° SW
Cosmos 2369 3.8 05:33:55 10° NNW 05:39:35 78° ENE 05:45:13 10° SSE
Hubble Space Telescope 0.7 05:38:46 39° WSW 05:40:08 69° S 05:44:15 10° E
PAYLOAD B 4.2 05:35:33 10° N 05:41:10 80° WNW 05:46:20 12° SSW
Meteor 1-27 4.5 05:40:06 25° SW 05:43:08 47° W 05:48:32 10° N
Timation 2 Rocket 4.2 05:38:08 10° S 05:43:59 64° ESE 05:49:59 10° NNE
Cosmos 1656 4.1 05:40:49 10° NNW 05:46:30 67° ENE 05:52:07 10° SSE
Cosmos 1408 4.2 05:52:48 10° NNE 05:56:10 36° E 05:59:30 10° SSE
Tiangong 2 3.4 05:57:06 12° NW 05:58:48 17° NNW 06:01:01 10° NNE
Cosmos 2084 3.6 05:58:27 22° SW 06:00:50 48° WNW 06:04:39 10° NNE
Cosmos 1833 Rocket 3.3 05:58:30 19° WSW 06:01:57 37° WNW 06:07:08 10° N
GPS 2-04 Rocket1 3.5 06:01:53 17° SSW 06:04:02 33° SSE 06:07:14 10° E
Cosmos 2233 Rocket 4.0 06:04:57 10° SSW 06:11:01 64° W 06:17:06 10° N
ATLAS 5 CENTAUR R/B 3.9 06:08:54 10° SSE 06:12:30 24° ESE 06:16:15 10° ENE
CZ-2C R/B 3.7 06:08:22 10° SSE 06:12:46 84° ENE 06:17:14 10° N
Abrixas 2.2 06:11:20 10° NW 06:13:56 74° NE 06:16:31 10° SE
Lacrosse 4 Rocket 3.2 06:12:39 10° S 06:16:36 34° ESE 06:20:39 10° NE
BREEZE M DEB (TANK) 2.4 06:18:40 10° NW 06:21:01 78° SW 06:26:19 10° SE
Aurora 2 Rocket 3.8 06:18:54 10° SSW 06:21:02 17° SSE 06:23:15 10° ESE
Cosmos 1455 3.9 06:20:52 12° WSW 06:22:25 15° WNW 06:24:38 10° NW
Cosmos 1980 Rocket 3.2 06:17:41 10° N 06:23:09 52° ENE 06:28:37 10° SE
Lacrosse 5 2.1 06:18:06 10° NNW 06:23:11 75° NE 06:28:14 10° SE
EO 1 Del DPAF 3.4 06:20:04 10° SSE 06:23:53 78° ENE 06:27:44 10° N
Cosmos 1371 Rocket 4.5 06:19:12 10° N 06:24:25 68° ENE 06:29:40 10° SSE
CRYOSAT 2 4.4 06:19:45 10° N 06:24:32 63° W 06:29:19 10° SSW
MTI 3.7 06:23:35 10° S 06:26:46 79° WSW 06:29:59 10° NNW
Meteor 1-28 Rocket 4.3 06:23:35 10° SSE 06:27:12 49° ENE 06:30:48 10° N
Cosmos 2278 4.2 06:23:42 10° NW 06:28:48 36° WSW 06:33:53 10° SSW
USA 116 4.4 06:26:06 10° S 06:31:25 84° WSW 06:36:24 10° NNW
Cosmos 1862 4.2 06:28:16 10° N 06:32:15 56° E 06:36:15 10° SSE
Okean-O 2.6 06:31:12 10° N 06:35:38 71° WNW 06:40:01 10° SSW
Okean O Rocket 3.4 06:34:31 10° NW 06:36:55 15° WNW 06:39:17 10° WSW
Cosmos 1707 Rocket 4.4 06:33:00 10° SW 06:36:58 32° W 06:40:54 10° NNW
Cosmos 1697 Rocket 2.7 06:32:55 10° NNW 06:38:30 60° WSW 06:44:02 10° S
Cosmos 1624 Rocket 4.2 06:35:25 10° NNW 06:40:41 80° ENE 06:45:52 10° SSE
OAO 2 Rocket 3.7 06:36:10 10° W 06:41:01 57° N 06:45:59 10° ENE
NOSS 3-3 (A) 4.1 06:37:05 10° SW 06:43:02 61° WNW 06:49:25 10° NNE
NOSS 3-3 (C) 4.1 06:37:06 10° SW 06:43:02 62° WNW 06:49:26 10° NNE
